Weather History for Millinocket, ME

Change the Weather History Date:

Sunday, April 21, 2013

  Actual Average Record
Temperature  
Mean Temperature 37 °F 44 °F  
Max Temperature 47 °F 54 °F 78 °F (1931)
Min Temperature 26 °F 34 °F 15 °F (1908)
Degree Days  
Heating Degree Days 28 21  
Month to date heating degree days 561 551  
Since 1 July heating degree days 7119 7750  
Cooling Degree Days 0 0  
Month to date cooling degree days 0 0  
Year to date cooling degree days 0 0  
Moisture  
Dew Point 18 °F    
Average Humidity 47    
Maximum Humidity 70    
Minimum Humidity 23    
Precipitation  
Precipitation T in 0.11 in 1.74 in (1940)
Month to date precipitation 1.32 2.58  
Year to date precipitation 6.25 10.75  
Snow  
Snow 0.00 in - - ()
Month to date snowfall  
Since 1 July snowfall 0.0  
Snow Depth 0.00 in    
Sea Level Pressure  
Sea Level Pressure 30.47 in    
Wind  
Wind Speed 7 mph (WNW)    
Max Wind Speed 18 mph    
Max Gust Speed 26 mph    
Visibility 10 miles    
Events Snow    
T = Trace of Precipitation, MM = Missing Value Source: NWS Daily Summary

Daily Weather History Graph

Daily Weather History Graph

Search for Another Location

Airport:

Trip Planner

Search our weather history database for the weather conditions in past years. The results will help you decide how hot, cold, wet, or windy it might be!

Date:

Astronomy

Apr. 21, 2013 Rise Set
Actual Time 5:38 AM EDT 7:29 PM EDT
Civil Twilight 5:06 AM EDT 8:01 PM EDT
Nautical Twilight 4:27 AM EDT 8:40 PM EDT
Astronomical Twilight 3:45 AM EDT 9:22 PM EDT
Moon 2:58 PM EDT (4/21) 3:12 AM EDT (4/21)
Length of Visible Light 14h 54m
Length of Day
13h 51m
Waxing Gibbous, 79% of the Moon is Illuminated
Apr 21
Waxing Gibbous
Apr 25
Full
May 2
Last Quarter
May 9
New
May 18
First Quarter

Hourly Weather History & Observations

Time (EDT) Temp. Windchill Dew Point Humidity Pressure Visibility Wind Dir Wind Speed Gust Speed Precip Events Conditions
12:53 AM 37.9 °F 32.7 °F 23.0 °F 55% 30.13 in 10.0 mi West 6.9 mph - N/A   Clear
1:53 AM 36.0 °F - 24.1 °F 62% 30.17 in 10.0 mi Calm Calm - N/A   Mostly Cloudy
2:53 AM 37.0 °F 29.3 °F 24.1 °F 59% 30.20 in 9.0 mi WNW 11.5 mph 17.3 mph 0.00 in Snow Light Snow
3:53 AM 35.1 °F 32.2 °F 26.1 °F 70% 30.24 in 9.0 mi Variable 3.5 mph - 0.00 in   Overcast
4:53 AM 35.1 °F 30.1 °F 26.1 °F 70% 30.26 in 10.0 mi Variable 5.8 mph - N/A   Overcast
5:53 AM 34.0 °F 26.0 °F 21.9 °F 61% 30.31 in 10.0 mi WNW 10.4 mph 16.1 mph N/A   Overcast
6:53 AM 34.0 °F 26.0 °F 19.9 °F 56% 30.36 in 10.0 mi WNW 10.4 mph 17.3 mph N/A   Clear
7:53 AM 34.0 °F 25.0 °F 18.0 °F 52% 30.41 in 10.0 mi WNW 12.7 mph 19.6 mph N/A   Mostly Cloudy
8:53 AM 35.1 °F 25.9 °F 17.1 °F 48% 30.44 in 10.0 mi WNW 13.8 mph 20.7 mph N/A   Overcast
9:53 AM 37.0 °F 30.4 °F 17.1 °F 44% 30.47 in 10.0 mi WNW 9.2 mph - N/A   Mostly Cloudy
10:53 AM 39.0 °F 32.8 °F 16.0 °F 39% 30.49 in 10.0 mi West 9.2 mph 25.3 mph N/A   Mostly Cloudy
11:53 AM 42.1 °F 36.6 °F 18.0 °F 38% 30.50 in 10.0 mi NW 9.2 mph 20.7 mph N/A   Scattered Clouds
12:53 PM 44.1 °F 38.1 °F 16.0 °F 32% 30.51 in 10.0 mi NW 11.5 mph 16.1 mph N/A   Clear
1:53 PM 45.0 °F 40.1 °F 12.9 °F 27% 30.53 in 10.0 mi WNW 9.2 mph 20.7 mph N/A   Clear
2:53 PM 46.0 °F 40.2 °F 12.0 °F 25% 30.53 in 10.0 mi WNW 12.7 mph 20.7 mph N/A   Clear
3:53 PM 46.0 °F 41.0 °F 10.9 °F 24% 30.54 in 10.0 mi NW 10.4 mph 18.4 mph N/A   Clear
4:53 PM 46.9 °F - 10.9 °F 23% 30.55 in 10.0 mi WNW 10.4 mph 18.4 mph N/A   Clear
5:53 PM 46.0 °F 41.0 °F 10.9 °F 24% 30.58 in 10.0 mi West 10.4 mph 16.1 mph N/A   Clear
6:53 PM 45.0 °F 39.7 °F 10.0 °F 24% 30.61 in 10.0 mi NNW 10.4 mph - N/A   Clear
7:53 PM 39.0 °F - 14.0 °F 36% 30.65 in 10.0 mi Calm Calm - N/A   Clear
8:53 PM 36.0 °F - 16.0 °F 44% 30.69 in 10.0 mi Calm Calm - N/A   Clear
9:53 PM 30.9 °F - 19.0 °F 61% 30.71 in 10.0 mi Calm Calm - N/A   Clear
10:53 PM 30.0 °F 26.5 °F 19.0 °F 64% 30.73 in 10.0 mi NW 3.5 mph - N/A   Clear
11:53 PM 28.0 °F - 19.9 °F 72% 30.74 in 10.0 mi Calm Calm - N/A   Clear